TimeEDT,TemperatureF,Dew PointF,Humidity,Sea Level PressureIn,VisibilityMPH,Wind Direction,Wind SpeedMPH,Gust SpeedMPH,PrecipitationIn,Events,Conditions,WindDirDegrees,DateUTC
12:53 AM,63.0,62.1,97,29.84,1.2,NNE,4.6,-,0.01,,Overcast,30,2013-06-27 04:53:00
1:07 AM,62.6,62.6,100,29.85,0.5,NNE,4.6,-,N/A,Fog,Fog,30,2013-06-27 05:07:00
1:15 AM,62.6,62.6,100,29.85,0.2,NNE,4.6,-,N/A,Fog,Fog,30,2013-06-27 05:15:00
1:38 AM,62.6,60.8,94,29.85,0.8,NE,6.9,-,N/A,,Mist,40,2013-06-27 05:38:00
1:49 AM,62.6,60.8,94,29.84,1.0,NNE,6.9,-,N/A,,Overcast,20,2013-06-27 05:49:00
1:53 AM,62.1,61.0,96,29.83,1.0,North,5.8,-,N/A,,Overcast,10,2013-06-27 05:53:00
2:04 AM,62.6,60.8,94,29.85,0.8,NNE,6.9,-,N/A,,Overcast,20,2013-06-27 06:04:00
2:53 AM,61.0,60.1,97,29.82,0.8,NNE,5.8,-,N/A,,Mist,20,2013-06-27 06:53:00
3:32 AM,60.8,60.8,100,29.84,1.0,NE,5.8,-,N/A,,Overcast,50,2013-06-27 07:32:00
3:53 AM,60.1,59.0,96,29.83,1.5,NNE,6.9,-,N/A,,Overcast,30,2013-06-27 07:53:00
4:53 AM,60.1,59.0,96,29.82,1.0,NE,6.9,-,N/A,,Overcast,40,2013-06-27 08:53:00
5:35 AM,60.8,59.0,94,29.84,0.8,NE,6.9,-,N/A,,Overcast,40,2013-06-27 09:35:00
5:53 AM,60.1,59.0,96,29.85,0.5,ENE,3.5,-,N/A,Fog,Fog,60,2013-06-27 09:53:00
6:53 AM,61.0,60.1,97,29.85,0.8,NNE,3.5,-,N/A,,Overcast,20,2013-06-27 10:53:00
7:53 AM,62.1,61.0,96,29.85,0.8,NNE,4.6,-,N/A,,Overcast,20,2013-06-27 11:53:00
8:22 AM,62.6,60.8,94,29.86,1.5,Calm,Calm,-,N/A,,Overcast,0,2013-06-27 12:22:00
8:53 AM,62.1,61.0,96,29.85,1.5,Calm,Calm,-,N/A,,Overcast,0,2013-06-27 12:53:00
9:00 AM,62.6,60.8,94,29.86,7.0,Calm,Calm,-,N/A,,Overcast,0,2013-06-27 13:00:00
9:53 AM,64.0,63.0,96,29.84,7.0,East,3.5,-,N/A,,Overcast,90,2013-06-27 13:53:00
10:53 AM,66.0,63.0,90,29.83,6.0,Calm,Calm,-,N/A,,Overcast,0,2013-06-27 14:53:00
11:53 AM,69.1,64.0,84,29.82,6.0,Variable,3.5,-,N/A,,Haze,0,2013-06-27 15:53:00
12:53 PM,70.0,64.9,84,29.82,7.0,NE,4.6,-,N/A,,Overcast,40,2013-06-27 16:53:00
1:53 PM,66.9,63.0,87,29.81,9.0,NE,8.1,-,N/A,,Overcast,50,2013-06-27 17:53:00
2:34 PM,66.2,62.6,88,29.82,4.0,NE,10.4,-,N/A,,Overcast,50,2013-06-27 18:34:00
2:53 PM,64.9,62.1,90,29.81,4.0,ENE,5.8,-,N/A,,Overcast,70,2013-06-27 18:53:00
2:55 PM,64.4,62.6,94,29.82,3.0,NE,8.1,-,N/A,,Overcast,50,2013-06-27 18:55:00
3:53 PM,64.0,62.1,93,29.80,1.0,NE,8.1,-,0.02,Rain,Rain,50,2013-06-27 19:53:00
4:53 PM,64.0,63.0,96,29.79,2.0,ENE,5.8,-,0.02,Rain,Light Rain,60,2013-06-27 20:53:00
5:12 PM,64.4,62.6,94,29.80,3.0,NE,5.8,-,0.01,Rain,Light Rain,50,2013-06-27 21:12:00
5:53 PM,64.9,63.0,93,29.78,9.0,NE,3.5,-,0.01,,Overcast,40,2013-06-27 21:53:00
6:53 PM,64.9,63.0,93,29.79,7.0,ENE,3.5,-,N/A,,Overcast,70,2013-06-27 22:53:00
7:50 PM,64.4,62.6,94,29.79,1.0,East,6.9,-,N/A,,Overcast,80,2013-06-27 23:50:00
7:51 PM,64.0,63.0,96,29.78,1.0,East,6.9,-,N/A,,Overcast,80,2013-06-27 23:51:00
7:58 PM,64.4,62.6,94,29.79,2.0,East,4.6,-,N/A,,Overcast,80,2013-06-27 23:58:00
8:13 PM,64.4,62.6,94,29.79,1.0,East,4.6,-,N/A,,Overcast,90,2013-06-28 00:13:00
8:53 PM,64.0,63.0,96,29.78,1.2,East,3.5,-,N/A,,Overcast,100,2013-06-28 00:53:00
9:53 PM,64.0,63.0,96,29.78,1.0,NE,4.6,-,0.01,,Overcast,50,2013-06-28 01:53:00
10:00 PM,64.4,62.6,94,29.79,0.8,East,3.5,-,N/A,,Overcast,80,2013-06-28 02:00:00
10:09 PM,64.4,62.6,94,29.80,1.0,East,3.5,-,N/A,,Overcast,80,2013-06-28 02:09:00
10:18 PM,62.6,62.6,100,29.80,0.8,ENE,3.5,-,N/A,,Overcast,70,2013-06-28 02:18:00
10:53 PM,63.0,62.1,97,29.77,0.8,NE,4.6,-,N/A,,Overcast,40,2013-06-28 02:53:00
11:28 PM,62.6,62.6,100,29.77,1.0,NE,5.8,-,N/A,,Overcast,50,2013-06-28 03:28:00
11:53 PM,62.1,61.0,96,29.75,1.8,NE,9.2,-,N/A,,Overcast,50,2013-06-28 03:53:00